Location: Altenst�hlen
(53.5567°N, 8.9425°E)
Time: 22:18:19
(UTC+00:00)

Cosmos 1076 Rocket - Pass Details

Date: 23 October 2019
Orbit: 589 x 613 km, 82.5° (Epoch: 19 November)

Event Time Altitude Azimuth Distance (km) Brightness Sun altitude
Rises 17:38:16 0° 349° (N) 2,893 7.1 -13.6°
Reaches altitude 10° 17:40:31 10° 351° (N) 1,980 6.3 -13.9°
Maximum altitude 17:44:54 79° 77° (ENE) 627 3.4 -14.6°
Drops below altitude 10° 17:49:14 10° 166° (SSE) 1,952 6.0 -15.2°
Sets 17:51:26 0° 167° (SSE) 2,846 6.8 -15.6°
